Location: Monfort
(47.1967°N, 0.2115°W)
Time: 11:48:15
(UTC+00:00)

Meteor 2-10 Rocket - Pass Details

Date: 24 October 2020
Orbit: 733 x 885 km, 81.2° (Epoch: 27 November)

Event Time Altitude Azimuth Distance (km) Brightness Sun altitude
Rises 18:08:25 0° 157° (SSE) 3,334 6.6 -12.8°
Reaches altitude 10° 18:11:08 10° 146° (SE) 2,381 5.8 -13.3°
Maximum altitude 18:15:35 27° 89° (E) 1,472 4.4 -14.0°
Drops below altitude 10° 18:19:53 10° 33° (NNE) 2,315 5.7 -14.8°
Sets 18:22:30 0° 22° (NNE) 3,226 6.5 -15.2°
